Hauptseite
METAR-TAF:

METAR-TAF

Flughäfen :

Flughafen Epinal-Mirecourt

Épinal, Frankreich

Breite: 48-19-31N, Länge: 6-04-00E, Höhe: 330 m

Beobachtung

Neuester Wetterbericht von vor 34 Minuten, um 01:00 UTC
Wind 3 kt aus West/Südwest
Temperatur 5°C
Luftfeuchtigkeit 87%
Luftdruck 1037 hPa
Sichtweite 10 km oder mehr
Durchbrochene Bewölkung in der Höhe von 2800 ft
Durchbrochene Bewölkung in der Höhe von 3300 ft
Geschlossene Wolkendecke in der Höhe von 5800 ft
Leichtregen

METAR: LFSG 050100Z AUTO 25003KT 9999 -RA BKN028 BKN033 OVC058 05/03 Q1037

Zeit: 02:34 (01:34 UTC)


TAF: fehlend

Wetterbeobachtungen und Prognosen von mehr als 4000 Flughäfen (METAR und TAF Bericht).

Die verfügbaren Stationen werden durch gelbe und rote Markierungen auf der Karte dargestellt.

Führen Sie die Maus auf sie, um den Namen der Station zu sehen.

Darauf klicken, um die Beobachtung von Wetterbeobachtungen und Prognosen zu sehen.

Um die Karte zu ändern : klicken Sie auf den grünen Tasten mit einem schwarzen Kreuz Zum Vergrößern, auf den grünen Button mit einem Gedankenstrich zu verkleinern, oder auf die grünen Pfeile für benachbarte Karten.


METAR-TAF: